Regional Weather Roundup
Issued by NWS Newport/Morehead, NC

Current Version | Previous Version | Text Only | Print | Product List | Glossary On
Versions: 1 2 3 4 5 6 7 8 9 10 11 12 13 14 15 16 17 18 19 20 21 22 23 24 25 26 27 28 29 30 31 32 33 34 35 36 37 38 39 40 41 42 43 44 45 46 47 48 49 50
000
ASUS42 KMHX 221822
RWRMHX
WEATHER ROUNDUP FOR EASTERN NORTH CAROLINA
NATIONAL WEATHER SERVICE NEWPORT/MOREHEAD CITY NC
200 PM EDT FRI AUG 22 2014

NOTE: "FAIR" INDICATES FEW OR NO CLOUDS BELOW 12,000 FEET
WITH NO SIGNIFICANT WEATHER AND/OR OBSTRUCTIONS TO VISIBILITY

NCZ015>017-031-032-045>047-102-103-221900-
NORTH COAST

CITY           SKY/WX    TMP DP  RH WIND       PRES   REMARKS
EDENTON        PTSUNNY   86  71  59 NW7       29.96F
ELIZABETH CITY PTSUNNY   87  71  58 NW9       29.96S
KITTY HAWK     MOCLDY    85  74  69 W6        29.94S
MANTEO         PTSUNNY   84  73  70 NW7       29.95F

$$

NCZ045>047-081-094-103-104-221900-
CENTRAL COAST

CITY           SKY/WX    TMP DP  RH WIND       PRES   REMARKS
FRISCO         PTSUNNY   84  75  74 W8        29.96F
SWANQUARTER      N/A     90 N/A N/A NW8G16    29.91F

$$

NCZ095-097-098-100-101-221900-
SOUTHERN COAST

CITY           SKY/WX    TMP DP  RH WIND       PRES   REMARKS
BEAUFORT       MOSUNNY   91  76  61 W10       29.97F HX 103
CEDAR ISLAND     N/A     88 N/A N/A NW2       30.00S
JACKSONVILLE   MOSUNNY   94  69  44 N14       29.97F
NEWPORT        NOT AVBL
PINEY ISLAND   PTCLDY    91  76  61 W10       29.96F HX 103
WILMINGTON     SUNNY     94  73  50 NW7       29.98F HX 103


$$

NCZ011>013-027>030-043-044-078>080-089-090>093-098-221900-
COASTAL PLAIN

CITY           SKY/WX    TMP DP  RH WIND       PRES   REMARKS
AHOSKIE        CLOUDY    82  72  70 CALM      29.98F
CLINTON        MOSUNNY   93  73  52 W8        29.99F HX 102
ELIZABETHTOWN  MOSUNNY   94  69  44 N3        29.99F
GOLDSBORO      PTSUNNY   89  75  63 N6        29.97F HX 100
GREENVILLE     PTSUNNY   90  72  55 N7        30.00F
HAVELOCK       MOSUNNY   92  72  51 W10       29.98F
KENANSVILLE    MOSUNNY   91  68  47 NW7       29.99F
KINSTON        PTSUNNY   90  73  58 NW5       29.99F
NEW BERN       MOSUNNY   94  73  50 NW8       29.98F HX 103
RICHLANDS      MOSUNNY   91  68  46 NW3       29.98S
ROANOKE RAPIDS NOT AVBL
ROCKY MOUNT    PTSUNNY   89  71  55 N7        29.99F
WASHINGTON     PTSUNNY   88  72  58 NW6       29.98F
WHITEVILLE     SUNNY     92  71  48 W6        29.99F

$$

AMZ130-135-150-152-154-156-158-170-250-252-270-ANZ085-086-088-633-658-670-221900-
MARINE OBSERVATIONS

STATION/POSITION TIME  TEMP    WIND        PRES    WAVE   SWELL
                       AIR SEA DIR/SP/G            HT/PER HT/PER
                 (UTC) (F)     (DEG/KT/KT) (MB)    (FT/S) (FT/S)
CHESAPEAKE LIGHT 1800   79     340/ 13/ 13 1014.9
BUOY 44014       1800   78 79  320/  8/  8 1013.4    2/ 6   2/ 6
DUCK             1800   82 80   10/  3/  4 1013.6
2E DUCK          1800                        N/A     2/ 7
OREGON INLET     1800   84 83  310/  7/  9 1014.2
BUOY 44095       1800      80                N/A     2/ 8
20E OREGON INLET NOT AVBL
HATTERAS CG      1800   84 83  270/ 10/ 12 1014.9
DIAMOND BUOY     1800   80     260/ 10/ 12 1014.4    2/ 8   2/ 8
CAPE LOOKOUT     1800   85     240/  9/ 11 1014.9
BEAUFORT LAB     1800   87 83  220/  7/  9 1014.6
30 SE NEW RIVER  1800   83 83  260/  6/  8 1015.0    2/ 4   2/ 4
5 SE WRIGHTSVILL 1800   83 84  190/ 10/ 10   N/A
BUOY 41002       1709   82 83  250/ 14/ 16 1017.5    2/10   2/10
BUOY 41004       1800   85 86  200/  6/  6 1016.3    2/ 9   2/ 9

$$



USA.gov is the U.S. government's official web portal to all federal, state and local government web resources and services.